Regional Weather Roundup
Issued by NWS Portland, ME

Current Version | Previous Version | Text Only | Print | Product List | Glossary Off
Versions: 1 2 3 4 5 6 7 8 9 10 11 12 13 14 15 16 17 18 19 20 21 22 23 24 25 26 27 28 29 30 31 32 33 34 35 36 37 38 39 40 41 42 43 44 45 46 47 48 49 50

000
ASUS41 KGYX 300205
RWRGYX
WEATHER ROUNDUP FOR MAINE AND NEW HAMPSHIRE
NATIONAL WEATHER SERVICE GRAY ME
1000 PM EDT WED OCT 29 2014

MEZ002-005-006-010-012-015-018-020-021-024-026-027-029-300300-
MAINE

CITY           SKY/WX    TMP DP  RH WIND       PRES   REMARKS
PORTLAND       CLOUDY    54  52  93 SW6       29.82R
SANFORD        CLOUDY    52  46  82 SW3       29.84R
BAR HARBOR     CLOUDY    54  54 100 SW5       29.78R
WISCASSET      LGT RAIN  53  52  96 CALM      29.82R FOG
ROCKLAND       CLOUDY    54  52  94 W9        29.79R
FRYEBURG       CLOUDY    49  47  93 W3        29.81R
LEWISTONAUBURN CLOUDY    52  48  87 S3        29.81R
AUGUSTA        CLOUDY    51  50  96 CALM      29.80R
WATERVILLE     CLOUDY    52  48  87 CALM      29.76F VSB 3/4
BANGOR         LGT RAIN  52  51  97 W3        29.78R
GREENVILLE       N/A     44  42  93 VRB5      29.74R
MILLINOCKET    CLOUDY    50  47  89 CALM      29.76S
HOULTON        LGT RAIN  51  46  83 VRB7G21   29.73R
PRESQUE ISLE   CLOUDY    50  43  76 SW6       29.71S
FRENCHVILLE    CLOUDY    47  41  80 SW9       29.67S
CARIBOU        CLOUDY    50  46  86 SW5       29.69S
$$

NHZ002-005-008-009-011-012-014-300300-
NEW HAMPSHIRE

CITY           SKY/WX    TMP DP  RH WIND       PRES   REMARKS
PORTSMOUTH     LGT RAIN  52  49  92 SW5       29.83S
ROCHESTER      CLOUDY    51  49  92 CALM      29.83R
NASHUA         CLOUDY    52  50  93 CALM      29.87R
MANCHESTER     CLOUDY    52  47  83 VRB5      29.84R
CONCORD        CLOUDY    50  48  93 W5        29.84S
LACONIA        CLOUDY    52  46  82 CALM      29.82R
PLYMOUTH       FAIR      49  48  98 NW3       29.84R
BERLIN         CLOUDY    46  38  73 VRB7      29.82R
WHITEFIELD     CLOUDY    45  39  79 SW6       29.84R
JAFFREY        CLOUDY    48  46  93 VRB3      29.87S
LEBANON        MOCLDY    42  37  82 S3        29.87R
MT WASHINGTON  FOG       27  27 100 NW49G58     N/A  VSB 0   WCI   7
$$

VTZ005-007-008-300300-
VERMONT

CITY           SKY/WX    TMP DP  RH WIND       PRES   REMARKS
ST JOHNSBURY     N/A     45  35  68 MISG      29.84R
MONTPELIER     PTCLDY    46  32  58 W3        29.89S
BURLINGTON     MOCLDY    48  35  60 S3        29.86S
$$

MAZ007-012-024-CTZ003-RIZ002-NYZ038-NYZ072-300300-
SOUTHERN NEW ENGLAND AND NY

CITY           SKY/WX    TMP DP  RH WIND       PRES   REMARKS
BOSTON         LGT RAIN  54  48  80 W6        29.87S
WORCESTER      CLOUDY    48  46  93 W9        29.88R
NANTUCKET      CLOUDY    61  59  93 SW10      29.82F FOG
PROVIDENCE     LGT RAIN  54  49  83 NW7       29.90R
HARTFORD       CLOUDY    51  44  77 NW6       29.90R
ALBANY         MOCLDY    47  42  83 CALM      29.93S
NEW YORK CITY  CLOUDY    55  47  74 NW13      29.94R
$$

ANZ081-ANZ082-ANZ150-NHZ014-MEZ023>029-300300-
COASTAL MARINE OBSERVATIONS

STATION/POSITION TIME  TEMP    WIND        PRES    WAVE
                       AIR SEA DIR/SP/G            HT/PER
                 (UTC) (F)     (DEG/KT/KT) (MB)    (FT/S)
MOUNT DESERT ROC 0100   53                 1007.9R
MATINICUS ROCK   0100          250/  8/  9 1007.8F
PORTLAND WX BUOY 0150   54 54  230/ 10/ 12 1009.5R   2/ 6
WELLS            0100   53 52  240/  2/  4 1009.0R
ISLE OF SHOALS   0100   53     250/ 12/ 12 1009.8R
JEFFREYS LEDGE   0121      54                N/A     2/ 6
CASHES LEDGE BUO 0150   57 55  270/ 12/ 14 1008.4F   3/ 6
$$

.............KEY..............
   WCI - WIND CHILL
   TC  - TEMPERATURE IN CELSIUS
   VSB - VISIBILITY IN MILES
   HX  - HEAT INDEX
   FAIR- INDICATES FEW OR NO CLOUDS BELOW 12,000 FT, WITH NO
         SIGNIFICANT WEATHER AND/OR OBSTRUCTIONS TO VISIBILITY.





USA.gov is the U.S. government's official web portal to all federal, state and local government web resources and services.